Home   Weather   Jacksonville Beach   Past weeks
Flag for USA

Past Weather in Jacksonville Beach, Florida, USA — Yesterday and Last 2 Weeks

Now
82 °F

Clear.


Feels Like: 86 °F
Forecast: 86 / 78 °F
Wind: 7 mph from Southwest

Location: Mayport

Current Time: Jul 21, 2019 at 9:34:17 pm

Latest Report: Jul 21, 2019 at 8:52 pm


Visibility: 10 mi

Pressure: 30.06 "Hg

Humidity: 67%

Dew Point: 70 °F

Location of Jacksonville BeachLocation

Past Weather in Jacksonville Beach — Graph

°F

Jacksonville Beach Temperature Yesterday

Maximum temperature yesterday: 90 °F (at 3:52 pm)
Minimum temperature yesterday: 76 °F (at 3:52 am)
Average temperature yesterday: 82 °F

High & Low Weather Summary for the Past Weeks

 TemperatureHumidityPressure
High92 °F (Jul 14, 12:52 pm)94% (Jul 6, 9:52 pm)30.16 "Hg (Jul 6, 9:52 pm)
Low74 °F (Jul 21, 4:52 am)50% (Jul 15, 6:52 pm)29.84 "Hg (Jul 8, 5:52 pm)
Average82 °F77%30.03 "Hg
* Reported Jul 6 7:52 pm — Jul 21 7:52 pm, Jacksonville Beach. Weather by CustomWeather, © 2019

Note: Actual official high and low records may vary slightly from our data, if they occured in-between our weather recording intervals... More about our weather records

Advertising

Jacksonville Beach Weather History for the Previous 24 Hours

Scroll right to see more
 ConditionsComfort  
Time TempWeatherWind HumidityBarometerVisibility
7:52 pm
Sun, Jul 21
83 °FSunny.8 mph72%30.06 "Hg10 mi
7:03 pm84 °FSunny.13 mph72%30.05 "Hg10 mi
6:52 pm84 °FThunderstorms. Sunny.14 mph74%30.04 "Hg10 mi
6:35 pm84 °FSunny.15 mph77%30.04 "Hg10 mi
6:13 pm85 °FThunderstorms. Sunny.12 mph75%30.03 "Hg10 mi
5:52 pm85 °FSunny.14 mph75%30.02 "Hg10 mi
4:52 pm86 °FSunny.13 mph72%30.02 "Hg10 mi
3:52 pm88 °FSunny.12 mph67%30.04 "Hg10 mi
2:52 pm89 °FSunny.12 mph65%30.05 "Hg10 mi
1:52 pm90 °FSunny.9 mph61%30.07 "Hg10 mi
12:52 pm88 °FSunny.8 mph65%30.08 "Hg10 mi
11:52 am88 °FSunny.8 mph65%30.08 "Hg10 mi
10:52 am88 °FSunny.5 mph59%30.08 "Hg10 mi
9:52 am85 °FSunny.7 mph68%30.07 "Hg10 mi
8:52 am82 °FSunny.3 mph72%30.08 "Hg10 mi
7:52 am78 °FSunny.6 mph84%30.08 "Hg10 mi
6:52 am76 °FSunny.3 mph91%30.06 "Hg10 mi
5:52 am76 °FClear.6 mph91%30.05 "Hg10 mi
4:52 am74 °FClear.3 mph94%30.04 "Hg10 mi
3:52 am75 °FClear.5 mph90%30.05 "Hg10 mi
2:52 am78 °FClear.5 mph82%30.06 "Hg10 mi
1:52 am77 °FClear.5 mph85%30.06 "Hg10 mi
12:52 am78 °FClear.No wind82%30.05 "Hg10 mi
11:52 pm
Sat, Jul 20
78 °FClear.3 mph76%30.06 "Hg10 mi
10:52 pm78 °FClear.No wind74%30.06 "Hg10 mi
10:14 pm78 °FPassing clouds.3 mph74%30.08 "Hg10 mi
9:52 pm78 °FThunderstorms. Clear.8 mph74%30.08 "Hg10 mi
Weather by CustomWeather, © 2019

See weather overview